Location: Tyumen
(57.1527°N, 65.5323°E)
Time: 08:12:55

ISS - Visible Passes

Search period start: 19 March 2018 00:00
Search period end: 29 March 2018 00:00
Orbit: 403 x 406 km, 51.6° (Epoch: 19 March)

Date Brightness Start Highest point End Pass type
(mag) Time Alt. Az. Time Alt. Az. Time Alt. Az.
26 Mar -1.7 20:34:42 10° S 20:35:57 14° SSE 20:35:57 14° SSE visible
27 Mar -2.0 21:17:26 10° SW 21:18:56 19° SSW 21:18:56 19° SSW visible
28 Mar -2.2 20:25:34 10° SSW 20:28:04 20° SSE 20:29:05 18° SE visible
28 Mar -1.3 22:01:00 10° WSW 22:01:44 15° SW 22:01:44 15° SW visible
